owner,sensor,date,latitude,longitude,relative_humidity,qcFlag 
COMPS,ioos:station:USF.COMPS:C13:1,2014-07-01T00:05:00Z,26.0630,-83.0730,84.01,1111122 
COMPS,ioos:station:USF.COMPS:C13:1,2014-07-01T00:35:00Z,26.0630,-83.0730,85.41,1111122 
COMPS,ioos:station:USF.COMPS:C13:1,2014-07-01T04:05:00Z,26.0630,-83.0730,76.02,1111122 
COMPS,ioos:station:USF.COMPS:C13:1,2014-07-01T04:35:00Z,26.0630,-83.0730,72.24,1111122 
COMPS,ioos:station:USF.COMPS:C13:1,2014-07-01T05:05:00Z,26.0630,-83.0730,75.75,1111122 
COMPS,ioos:station:USF.COMPS:C13:1,2014-07-01T05:35:00Z,26.0630,-83.0730,77.23,1111122 
COMPS,ioos:station:USF.COMPS:C13:1,2014-07-01T06:05:00Z,26.0630,-83.0730,78.8,1111122 
COMPS,ioos:station:USF.COMPS:C13:1,2014-07-01T06:35:00Z,26.0630,-83.0730,77.71,1111122 
COMPS,ioos:station:USF.COMPS:C13:1,2014-07-01T07:05:00Z,26.0630,-83.0730,79.37,1111122 
COMPS,ioos:station:USF.COMPS:C13:1,2014-07-01T07:35:00Z,26.0630,-83.0730,81.81,1111122 
COMPS,ioos:station:USF.COMPS:C13:1,2014-07-01T08:05:00Z,26.0630,-83.0730,84.48,1111122 
COMPS,ioos:station:USF.COMPS:C13:1,2014-07-01T08:35:00Z,26.0630,-83.0730,72.44,1111122 
COMPS,ioos:station:USF.COMPS:C13:1,2014-07-01T09:05:00Z,26.0630,-83.0730,77.42,1111122 
COMPS,ioos:station:USF.COMPS:C13:1,2014-07-01T09:35:00Z,26.0630,-83.0730,77.54,1111122 
COMPS,ioos:station:USF.COMPS:C13:1,2014-07-01T10:05:00Z,26.0630,-83.0730,79.74,1111122 
COMPS,ioos:station:USF.COMPS:C13:1,2014-07-01T10:35:00Z,26.0630,-83.0730,81.81,1111122 
COMPS,ioos:station:USF.COMPS:C13:1,2014-07-01T11:05:00Z,26.0630,-83.0730,81.7,1111122 
COMPS,ioos:station:USF.COMPS:C13:1,2014-07-01T11:35:00Z,26.0630,-83.0730,82.17,1111122 
COMPS,ioos:station:USF.COMPS:C13:1,2014-07-01T12:05:00Z,26.0630,-83.0730,80.64,1111122 
COMPS,ioos:station:USF.COMPS:C13:1,2014-07-01T12:35:00Z,26.0630,-83.0730,80.95,1111122 
COMPS,ioos:station:USF.COMPS:C13:1,2014-07-01T13:05:00Z,26.0630,-83.0730,81.54,1111122 
COMPS,ioos:station:USF.COMPS:C13:1,2014-07-01T13:35:00Z,26.0630,-83.0730,82.86,1111122 
COMPS,ioos:station:USF.COMPS:C13:1,2014-07-01T14:05:00Z,26.0630,-83.0730,83.36,1111122 
COMPS,ioos:station:USF.COMPS:C13:1,2014-07-01T14:35:00Z,26.0630,-83.0730,81.72,1111122 
COMPS,ioos:station:USF.COMPS:C13:1,2014-07-01T15:05:00Z,26.0630,-83.0730,75.68,1111122 
COMPS,ioos:station:USF.COMPS:C13:1,2014-07-01T15:35:00Z,26.0630,-83.0730,78.86,1111122 
COMPS,ioos:station:USF.COMPS:C13:1,2014-07-01T16:05:00Z,26.0630,-83.0730,82.69,1111122 
COMPS,ioos:station:USF.COMPS:C13:1,2014-07-01T16:35:00Z,26.0630,-83.0730,80.94,1111122 
COMPS,ioos:station:USF.COMPS:C13:1,2014-07-01T17:05:00Z,26.0630,-83.0730,81.04,1111122 
COMPS,ioos:station:USF.COMPS:C13:1,2014-07-01T17:35:00Z,26.0630,-83.0730,80.78,1111122 
COMPS,ioos:station:USF.COMPS:C13:1,2014-07-01T18:05:00Z,26.0630,-83.0730,79.61,1111122 
COMPS,ioos:station:USF.COMPS:C13:1,2014-07-01T18:35:00Z,26.0630,-83.0730,79.51,1111122 
COMPS,ioos:station:USF.COMPS:C13:1,2014-07-01T19:05:00Z,26.0630,-83.0730,77.47,1111122 
COMPS,ioos:station:USF.COMPS:C13:1,2014-07-01T19:35:00Z,26.0630,-83.0730,76.32,1111122 
COMPS,ioos:station:USF.COMPS:C13:1,2014-07-01T20:05:00Z,26.0630,-83.0730,78.11,1111122 
COMPS,ioos:station:USF.COMPS:C13:1,2014-07-01T20:35:00Z,26.0630,-83.0730,82.0,1111122 
COMPS,ioos:station:USF.COMPS:C13:1,2014-07-01T21:05:00Z,26.0630,-83.0730,83.42,1111122 
COMPS,ioos:station:USF.COMPS:C13:1,2014-07-01T21:35:00Z,26.0630,-83.0730,73.49,1111122 
COMPS,ioos:station:USF.COMPS:C13:1,2014-07-01T22:05:00Z,26.0630,-83.0730,77.19,1111122 
COMPS,ioos:station:USF.COMPS:C13:1,2014-07-01T22:35:00Z,26.0630,-83.0730,75.61,1111122 
COMPS,ioos:station:USF.COMPS:C13:1,2014-07-01T23:05:00Z,26.0630,-83.0730,77.78,1111122 
COMPS,ioos:station:USF.COMPS:C13:1,2014-07-01T23:35:00Z,26.0630,-83.0730,80.84,1111122 
COMPS,ioos:station:USF.COMPS:C13:1,2014-07-02T00:05:00Z,26.0630,-83.0730,81.73,1111122 
COMPS,ioos:station:USF.COMPS:C13:1,2014-07-02T00:35:00Z,26.0630,-83.0730,83.6,1111122 
COMPS,ioos:station:USF.COMPS:C13:1,2014-07-02T01:05:00Z,26.0630,-83.0730,85.11,1111122 
COMPS,ioos:station:USF.COMPS:C13:1,2014-07-02T01:35:00Z,26.0630,-83.0730,83.7,1111122 
COMPS,ioos:station:USF.COMPS:C13:1,2014-07-02T02:05:00Z,26.0630,-83.0730,83.22,1111122 
COMPS,ioos:station:USF.COMPS:C13:1,2014-07-02T02:35:00Z,26.0630,-83.0730,85.21,1111122 
COMPS,ioos:station:USF.COMPS:C13:1,2014-07-02T03:05:00Z,26.0630,-83.0730,84.36,1111122 
COMPS,ioos:station:USF.COMPS:C13:1,2014-07-02T03:35:00Z,26.0630,-83.0730,83.6,1111122 
COMPS,ioos:station:USF.COMPS:C13:1,2014-07-02T05:05:00Z,26.0630,-83.0730,87.67,1111122 
COMPS,ioos:station:USF.COMPS:C13:1,2014-07-02T05:35:00Z,26.0630,-83.0730,87.5,1111122 
COMPS,ioos:station:USF.COMPS:C13:1,2014-07-02T06:05:00Z,26.0630,-83.0730,87.46,1111122 
COMPS,ioos:station:USF.COMPS:C13:1,2014-07-02T06:35:00Z,26.0630,-83.0730,87.52,1111122 
COMPS,ioos:station:USF.COMPS:C13:1,2014-07-02T07:05:00Z,26.0630,-83.0730,87.69,1111122 
COMPS,ioos:station:USF.COMPS:C13:1,2014-07-02T07:35:00Z,26.0630,-83.0730,86.98,1111122 
COMPS,ioos:station:USF.COMPS:C13:1,2014-07-02T08:05:00Z,26.0630,-83.0730,84.24,1111122 
COMPS,ioos:station:USF.COMPS:C13:1,2014-07-02T08:35:00Z,26.0630,-83.0730,83.44,1111122 
COMPS,ioos:station:USF.COMPS:C13:1,2014-07-02T11:05:00Z,26.0630,-83.0730,83.48,1111122 
COMPS,ioos:station:USF.COMPS:C13:1,2014-07-02T11:35:00Z,26.0630,-83.0730,83.66,1111122 
COMPS,ioos:station:USF.COMPS:C13:1,2014-07-02T12:05:00Z,26.0630,-83.0730,82.96,1111122 
COMPS,ioos:station:USF.COMPS:C13:1,2014-07-02T12:35:00Z,26.0630,-83.0730,80.63,1111122 
COMPS,ioos:station:USF.COMPS:C13:1,2014-07-02T13:05:00Z,26.0630,-83.0730,79.03,1111122 
COMPS,ioos:station:USF.COMPS:C13:1,2014-07-02T13:35:00Z,26.0630,-83.0730,76.21,1111122 
COMPS,ioos:station:USF.COMPS:C13:1,2014-07-02T14:05:00Z,26.0630,-83.0730,75.77,1111122 
COMPS,ioos:station:USF.COMPS:C13:1,2014-07-02T14:35:00Z,26.0630,-83.0730,79.93,1111122 
COMPS,ioos:station:USF.COMPS:C13:1,2014-07-02T15:05:00Z,26.0630,-83.0730,81.27,1111122 
COMPS,ioos:station:USF.COMPS:C13:1,2014-07-02T15:35:00Z,26.0630,-83.0730,81.06,1111122 
COMPS,ioos:station:USF.COMPS:C13:1,2014-07-02T16:05:00Z,26.0630,-83.0730,81.87,1111122 
COMPS,ioos:station:USF.COMPS:C13:1,2014-07-02T16:35:00Z,26.0630,-83.0730,82.11,1111122 
COMPS,ioos:station:USF.COMPS:C13:1,2014-07-02T17:05:00Z,26.0630,-83.0730,82.26,1111122 
COMPS,ioos:station:USF.COMPS:C13:1,2014-07-02T17:35:00Z,26.0630,-83.0730,81.31,1111122 
COMPS,ioos:station:USF.COMPS:C13:1,2014-07-02T18:05:00Z,26.0630,-83.0730,80.44,1111122 
COMPS,ioos:station:USF.COMPS:C13:1,2014-07-02T18:35:00Z,26.0630,-83.0730,80.42,1111122 
COMPS,ioos:station:USF.COMPS:C13:1,2014-07-02T19:05:00Z,26.0630,-83.0730,80.33,1111122 
COMPS,ioos:station:USF.COMPS:C13:1,2014-07-02T19:35:00Z,26.0630,-83.0730,77.45,1111122 
COMPS,ioos:station:USF.COMPS:C13:1,2014-07-02T20:05:00Z,26.0630,-83.0730,84.43,1111122 
COMPS,ioos:station:USF.COMPS:C13:1,2014-07-02T20:35:00Z,26.0630,-83.0730,77.12,1111122 
COMPS,ioos:station:USF.COMPS:C13:1,2014-07-02T21:05:00Z,26.0630,-83.0730,73.2,1111122 
COMPS,ioos:station:USF.COMPS:C13:1,2014-07-02T21:35:00Z,26.0630,-83.0730,73.59,1111122 
COMPS,ioos:station:USF.COMPS:C13:1,2014-07-02T22:05:00Z,26.0630,-83.0730,74.79,1111122 
COMPS,ioos:station:USF.COMPS:C13:1,2014-07-02T22:35:00Z,26.0630,-83.0730,76.94,1111122 
COMPS,ioos:station:USF.COMPS:C13:1,2014-07-02T23:05:00Z,26.0630,-83.0730,79.65,1111122 
COMPS,ioos:station:USF.COMPS:C13:1,2014-07-02T23:35:00Z,26.0630,-83.0730,79.96,1111122 
COMPS,ioos:station:USF.COMPS:C13:1,2014-07-03T00:05:00Z,26.0630,-83.0730,77.36,1111122 
COMPS,ioos:station:USF.COMPS:C13:1,2014-07-03T00:35:00Z,26.0630,-83.0730,77.21,1111122 
COMPS,ioos:station:USF.COMPS:C13:1,2014-07-03T01:05:00Z,26.0630,-83.0730,75.59,1111122 
COMPS,ioos:station:USF.COMPS:C13:1,2014-07-03T01:35:00Z,26.0630,-83.0730,76.74,1111122 
COMPS,ioos:station:USF.COMPS:C13:1,2014-07-03T02:05:00Z,26.0630,-83.0730,77.53,1111122 
COMPS,ioos:station:USF.COMPS:C13:1,2014-07-03T02:35:00Z,26.0630,-83.0730,74.94,1111122 
COMPS,ioos:station:USF.COMPS:C13:1,2014-07-03T04:05:00Z,26.0630,-83.0730,79.24,1111122 
COMPS,ioos:station:USF.COMPS:C13:1,2014-07-03T04:35:00Z,26.0630,-83.0730,78.74,1111122 
COMPS,ioos:station:USF.COMPS:C13:1,2014-07-03T05:05:00Z,26.0630,-83.0730,78.75,1111122 
COMPS,ioos:station:USF.COMPS:C13:1,2014-07-03T05:35:00Z,26.0630,-83.0730,81.27,1111122 
COMPS,ioos:station:USF.COMPS:C13:1,2014-07-03T06:05:00Z,26.0630,-83.0730,77.95,1111122 
COMPS,ioos:station:USF.COMPS:C13:1,2014-07-03T06:35:00Z,26.0630,-83.0730,78.38,1111122 
COMPS,ioos:station:USF.COMPS:C13:1,2014-07-03T07:05:00Z,26.0630,-83.0730,78.82,1111122 
COMPS,ioos:station:USF.COMPS:C13:1,2014-07-03T07:35:00Z,26.0630,-83.0730,78.55,1111122 
COMPS,ioos:station:USF.COMPS:C13:1,2014-07-03T08:05:00Z,26.0630,-83.0730,79.72,1111122 
COMPS,ioos:station:USF.COMPS:C13:1,2014-07-03T08:35:00Z,26.0630,-83.0730,79.26,1111122 
COMPS,ioos:station:USF.COMPS:C13:1,2014-07-03T09:05:00Z,26.0630,-83.0730,77.93,1111122 
COMPS,ioos:station:USF.COMPS:C13:1,2014-07-03T09:35:00Z,26.0630,-83.0730,77.67,1111122 
COMPS,ioos:station:USF.COMPS:C13:1,2014-07-03T10:05:00Z,26.0630,-83.0730,76.49,1111122 
COMPS,ioos:station:USF.COMPS:C13:1,2014-07-03T10:35:00Z,26.0630,-83.0730,78.84,1111122 
COMPS,ioos:station:USF.COMPS:C13:1,2014-07-03T11:05:00Z,26.0630,-83.0730,78.12,1111122 
COMPS,ioos:station:USF.COMPS:C13:1,2014-07-03T11:35:00Z,26.0630,-83.0730,78.44,1111122 
COMPS,ioos:station:USF.COMPS:C13:1,2014-07-03T12:05:00Z,26.0630,-83.0730,75.45,1111122 
COMPS,ioos:station:USF.COMPS:C13:1,2014-07-03T12:35:00Z,26.0630,-83.0730,75.98,1111122 
COMPS,ioos:station:USF.COMPS:C13:1,2014-07-03T13:05:00Z,26.0630,-83.0730,76.66,1111122 
COMPS,ioos:station:USF.COMPS:C13:1,2014-07-03T13:35:00Z,26.0630,-83.0730,76.55,1111122 
COMPS,ioos:station:USF.COMPS:C13:1,2014-07-03T14:05:00Z,26.0630,-83.0730,76.09,1111122 
COMPS,ioos:station:USF.COMPS:C13:1,2014-07-03T14:35:00Z,26.0630,-83.0730,77.86,1111122 
COMPS,ioos:station:USF.COMPS:C13:1,2014-07-03T15:05:00Z,26.0630,-83.0730,78.29,1111122 
COMPS,ioos:station:USF.COMPS:C13:1,2014-07-03T15:35:00Z,26.0630,-83.0730,77.47,1111122 
COMPS,ioos:station:USF.COMPS:C13:1,2014-07-03T16:05:00Z,26.0630,-83.0730,75.97,1111122 
COMPS,ioos:station:USF.COMPS:C13:1,2014-07-03T16:35:00Z,26.0630,-83.0730,75.68,1111122 
COMPS,ioos:station:USF.COMPS:C13:1,2014-07-03T17:05:00Z,26.0630,-83.0730,75.52,1111122 
COMPS,ioos:station:USF.COMPS:C13:1,2014-07-03T17:35:00Z,26.0630,-83.0730,75.48,1111122 
COMPS,ioos:station:USF.COMPS:C13:1,2014-07-03T18:05:00Z,26.0630,-83.0730,76.95,1111122 
COMPS,ioos:station:USF.COMPS:C13:1,2014-07-03T18:35:00Z,26.0630,-83.0730,74.86,1111122 
COMPS,ioos:station:USF.COMPS:C13:1,2014-07-03T19:05:00Z,26.0630,-83.0730,75.72,1111122 
COMPS,ioos:station:USF.COMPS:C13:1,2014-07-03T19:35:00Z,26.0630,-83.0730,76.75,1111122 
COMPS,ioos:station:USF.COMPS:C13:1,2014-07-03T20:05:00Z,26.0630,-83.0730,77.3,1111122 
COMPS,ioos:station:USF.COMPS:C13:1,2014-07-03T20:35:00Z,26.0630,-83.0730,77.4,1111122 
COMPS,ioos:station:USF.COMPS:C13:1,2014-07-03T21:05:00Z,26.0630,-83.0730,76.91,1111122 
COMPS,ioos:station:USF.COMPS:C13:1,2014-07-03T21:35:00Z,26.0630,-83.0730,76.39,1111122 
COMPS,ioos:station:USF.COMPS:C13:1,2014-07-03T22:05:00Z,26.0630,-83.0730,76.08,1111122 
COMPS,ioos:station:USF.COMPS:C13:1,2014-07-03T22:35:00Z,26.0630,-83.0730,75.4,1111122 
COMPS,ioos:station:USF.COMPS:C13:1,2014-07-03T23:05:00Z,26.0630,-83.0730,75.36,1111122 
COMPS,ioos:station:USF.COMPS:C13:1,2014-07-03T23:35:00Z,26.0630,-83.0730,74.97,1111122 
COMPS,ioos:station:USF.COMPS:C13:1,2014-07-04T00:05:00Z,26.0630,-83.0730,75.22,1111122 
COMPS,ioos:station:USF.COMPS:C13:1,2014-07-04T00:35:00Z,26.0630,-83.0730,76.78,1111122 
COMPS,ioos:station:USF.COMPS:C13:1,2014-07-04T01:05:00Z,26.0630,-83.0730,75.89,1111122 
COMPS,ioos:station:USF.COMPS:C13:1,2014-07-04T01:35:00Z,26.0630,-83.0730,75.76,1111122 
COMPS,ioos:station:USF.COMPS:C13:1,2014-07-04T02:05:00Z,26.0630,-83.0730,74.9,1111122 
COMPS,ioos:station:USF.COMPS:C13:1,2014-07-04T02:35:00Z,26.0630,-83.0730,74.71,1111122 
COMPS,ioos:station:USF.COMPS:C13:1,2014-07-04T03:05:00Z,26.0630,-83.0730,73.55,1111122 
COMPS,ioos:station:USF.COMPS:C13:1,2014-07-04T03:35:00Z,26.0630,-83.0730,74.76,1111122 
COMPS,ioos:station:USF.COMPS:C13:1,2014-07-04T04:05:00Z,26.0630,-83.0730,74.78,1111122 
COMPS,ioos:station:USF.COMPS:C13:1,2014-07-04T04:35:00Z,26.0630,-83.0730,74.41,1111122 
COMPS,ioos:station:USF.COMPS:C13:1,2014-07-04T05:05:00Z,26.0630,-83.0730,73.26,1111122 
COMPS,ioos:station:USF.COMPS:C13:1,2014-07-04T05:35:00Z,26.0630,-83.0730,73.67,1111122 
COMPS,ioos:station:USF.COMPS:C13:1,2014-07-04T06:05:00Z,26.0630,-83.0730,75.76,1111122 
COMPS,ioos:station:USF.COMPS:C13:1,2014-07-04T06:35:00Z,26.0630,-83.0730,74.5,1111122 
COMPS,ioos:station:USF.COMPS:C13:1,2014-07-04T07:05:00Z,26.0630,-83.0730,74.82,1111122 
COMPS,ioos:station:USF.COMPS:C13:1,2014-07-04T07:35:00Z,26.0630,-83.0730,75.97,1111122 
COMPS,ioos:station:USF.COMPS:C13:1,2014-07-04T08:05:00Z,26.0630,-83.0730,76.73,1111122 
COMPS,ioos:station:USF.COMPS:C13:1,2014-07-04T08:35:00Z,26.0630,-83.0730,75.9,1111122 
COMPS,ioos:station:USF.COMPS:C13:1,2014-07-04T09:05:00Z,26.0630,-83.0730,76.98,1111122 
COMPS,ioos:station:USF.COMPS:C13:1,2014-07-04T09:35:00Z,26.0630,-83.0730,76.82,1111122 
COMPS,ioos:station:USF.COMPS:C13:1,2014-07-04T10:05:00Z,26.0630,-83.0730,76.77,1111122 
COMPS,ioos:station:USF.COMPS:C13:1,2014-07-04T10:35:00Z,26.0630,-83.0730,77.05,1111122 
COMPS,ioos:station:USF.COMPS:C13:1,2014-07-04T11:05:00Z,26.0630,-83.0730,77.7,1111122 
COMPS,ioos:station:USF.COMPS:C13:1,2014-07-04T11:35:00Z,26.0630,-83.0730,76.03,1111122 
COMPS,ioos:station:USF.COMPS:C13:1,2014-07-04T12:05:00Z,26.0630,-83.0730,73.68,1111122 
COMPS,ioos:station:USF.COMPS:C13:1,2014-07-04T12:35:00Z,26.0630,-83.0730,72.02,1111122 
COMPS,ioos:station:USF.COMPS:C13:1,2014-07-04T13:05:00Z,26.0630,-83.0730,71.29,1111122 
COMPS,ioos:station:USF.COMPS:C13:1,2014-07-04T13:35:00Z,26.0630,-83.0730,73.59,1111122 
COMPS,ioos:station:USF.COMPS:C13:1,2014-07-04T14:05:00Z,26.0630,-83.0730,73.63,1111122 
COMPS,ioos:station:USF.COMPS:C13:1,2014-07-04T14:35:00Z,26.0630,-83.0730,74.21,1111122 
COMPS,ioos:station:USF.COMPS:C13:1,2014-07-04T15:05:00Z,26.0630,-83.0730,74.41,1111122 
COMPS,ioos:station:USF.COMPS:C13:1,2014-07-04T15:35:00Z,26.0630,-83.0730,74.86,1111122 
COMPS,ioos:station:USF.COMPS:C13:1,2014-07-04T16:05:00Z,26.0630,-83.0730,74.74,1111122 
COMPS,ioos:station:USF.COMPS:C13:1,2014-07-04T16:35:00Z,26.0630,-83.0730,75.09,1111122 
COMPS,ioos:station:USF.COMPS:C13:1,2014-07-04T17:05:00Z,26.0630,-83.0730,75.68,1111122 
COMPS,ioos:station:USF.COMPS:C13:1,2014-07-04T17:35:00Z,26.0630,-83.0730,73.29,1111122 
COMPS,ioos:station:USF.COMPS:C13:1,2014-07-04T18:05:00Z,26.0630,-83.0730,71.7,1111122 
COMPS,ioos:station:USF.COMPS:C13:1,2014-07-04T18:35:00Z,26.0630,-83.0730,74.56,1111122 
COMPS,ioos:station:USF.COMPS:C13:1,2014-07-04T19:05:00Z,26.0630,-83.0730,75.68,1111122 
COMPS,ioos:station:USF.COMPS:C13:1,2014-07-04T19:35:00Z,26.0630,-83.0730,74.13,1111122 
COMPS,ioos:station:USF.COMPS:C13:1,2014-07-04T21:05:00Z,26.0630,-83.0730,71.71,1111122 
COMPS,ioos:station:USF.COMPS:C13:1,2014-07-04T21:35:00Z,26.0630,-83.0730,72.26,1111122 
COMPS,ioos:station:USF.COMPS:C13:1,2014-07-04T22:05:00Z,26.0630,-83.0730,73.2,1111122 
COMPS,ioos:station:USF.COMPS:C13:1,2014-07-04T22:35:00Z,26.0630,-83.0730,74.33,1111122 
COMPS,ioos:station:USF.COMPS:C13:1,2014-07-04T23:05:00Z,26.0630,-83.0730,74.42,1111122 
COMPS,ioos:station:USF.COMPS:C13:1,2014-07-04T23:35:00Z,26.0630,-83.0730,72.27,1111122 
COMPS,ioos:station:USF.COMPS:C13:1,2014-07-05T00:05:00Z,26.0630,-83.0730,71.54,1111122 
COMPS,ioos:station:USF.COMPS:C13:1,2014-07-05T00:35:00Z,26.0630,-83.0730,71.4,1111122 
COMPS,ioos:station:USF.COMPS:C13:1,2014-07-05T01:05:00Z,26.0630,-83.0730,71.38,1111122 
COMPS,ioos:station:USF.COMPS:C13:1,2014-07-05T01:35:00Z,26.0630,-83.0730,71.37,1111122 
COMPS,ioos:station:USF.COMPS:C13:1,2014-07-05T02:05:00Z,26.0630,-83.0730,71.56,1111122 
COMPS,ioos:station:USF.COMPS:C13:1,2014-07-05T02:35:00Z,26.0630,-83.0730,75.3,1111122 
COMPS,ioos:station:USF.COMPS:C13:1,2014-07-05T03:05:00Z,26.0630,-83.0730,75.44,1111122 
COMPS,ioos:station:USF.COMPS:C13:1,2014-07-05T03:35:00Z,26.0630,-83.0730,74.53,1111122 
COMPS,ioos:station:USF.COMPS:C13:1,2014-07-05T04:05:00Z,26.0630,-83.0730,73.91,1111122 
COMPS,ioos:station:USF.COMPS:C13:1,2014-07-05T04:35:00Z,26.0630,-83.0730,73.24,1111122 
COMPS,ioos:station:USF.COMPS:C13:1,2014-07-05T05:05:00Z,26.0630,-83.0730,72.86,1111122 
COMPS,ioos:station:USF.COMPS:C13:1,2014-07-05T05:35:00Z,26.0630,-83.0730,72.81,1111122 
COMPS,ioos:station:USF.COMPS:C13:1,2014-07-05T06:05:00Z,26.0630,-83.0730,73.1,1111122 
COMPS,ioos:station:USF.COMPS:C13:1,2014-07-05T06:35:00Z,26.0630,-83.0730,73.21,1111122 
COMPS,ioos:station:USF.COMPS:C13:1,2014-07-05T07:05:00Z,26.0630,-83.0730,73.86,1111122 
COMPS,ioos:station:USF.COMPS:C13:1,2014-07-05T07:35:00Z,26.0630,-83.0730,74.73,1111122 
COMPS,ioos:station:USF.COMPS:C13:1,2014-07-05T08:05:00Z,26.0630,-83.0730,74.68,1111122 
COMPS,ioos:station:USF.COMPS:C13:1,2014-07-05T08:35:00Z,26.0630,-83.0730,74.98,1111122 
COMPS,ioos:station:USF.COMPS:C13:1,2014-07-05T09:05:00Z,26.0630,-83.0730,74.79,1111122 
COMPS,ioos:station:USF.COMPS:C13:1,2014-07-05T09:35:00Z,26.0630,-83.0730,74.94,1111122 
COMPS,ioos:station:USF.COMPS:C13:1,2014-07-05T10:05:00Z,26.0630,-83.0730,74.85,1111122 
COMPS,ioos:station:USF.COMPS:C13:1,2014-07-05T10:35:00Z,26.0630,-83.0730,75.17,1111122 
COMPS,ioos:station:USF.COMPS:C13:1,2014-07-05T11:05:00Z,26.0630,-83.0730,75.19,1111122 
COMPS,ioos:station:USF.COMPS:C13:1,2014-07-05T11:35:00Z,26.0630,-83.0730,75.11,1111122 
COMPS,ioos:station:USF.COMPS:C13:1,2014-07-05T12:05:00Z,26.0630,-83.0730,75.03,1111122 
COMPS,ioos:station:USF.COMPS:C13:1,2014-07-05T12:35:00Z,26.0630,-83.0730,76.43,1111122 
COMPS,ioos:station:USF.COMPS:C13:1,2014-07-05T13:05:00Z,26.0630,-83.0730,76.72,1111122 
COMPS,ioos:station:USF.COMPS:C13:1,2014-07-05T13:35:00Z,26.0630,-83.0730,76.72,1111122 
COMPS,ioos:station:USF.COMPS:C13:1,2014-07-05T14:05:00Z,26.0630,-83.0730,76.2,1111122 
COMPS,ioos:station:USF.COMPS:C13:1,2014-07-05T14:35:00Z,26.0630,-83.0730,76.59,1111122 
COMPS,ioos:station:USF.COMPS:C13:1,2014-07-05T15:05:00Z,26.0630,-83.0730,76.71,1111122 
COMPS,ioos:station:USF.COMPS:C13:1,2014-07-05T15:35:00Z,26.0630,-83.0730,75.77,1111122 
COMPS,ioos:station:USF.COMPS:C13:1,2014-07-05T16:05:00Z,26.0630,-83.0730,75.56,1111122 
COMPS,ioos:station:USF.COMPS:C13:1,2014-07-05T16:35:00Z,26.0630,-83.0730,75.38,1111122 
COMPS,ioos:station:USF.COMPS:C13:1,2014-07-05T17:05:00Z,26.0630,-83.0730,75.6,1111122 
COMPS,ioos:station:USF.COMPS:C13:1,2014-07-05T17:35:00Z,26.0630,-83.0730,76.85,1111122 
COMPS,ioos:station:USF.COMPS:C13:1,2014-07-05T18:05:00Z,26.0630,-83.0730,74.26,1111122 
COMPS,ioos:station:USF.COMPS:C13:1,2014-07-05T18:35:00Z,26.0630,-83.0730,73.14,1111122 
COMPS,ioos:station:USF.COMPS:C13:1,2014-07-05T19:05:00Z,26.0630,-83.0730,73.94,1111122 
COMPS,ioos:station:USF.COMPS:C13:1,2014-07-05T19:35:00Z,26.0630,-83.0730,72.92,1111122 
COMPS,ioos:station:USF.COMPS:C13:1,2014-07-05T20:05:00Z,26.0630,-83.0730,72.4,1111122 
COMPS,ioos:station:USF.COMPS:C13:1,2014-07-05T20:35:00Z,26.0630,-83.0730,70.97,1111122 
COMPS,ioos:station:USF.COMPS:C13:1,2014-07-05T21:05:00Z,26.0630,-83.0730,72.48,1111122 
COMPS,ioos:station:USF.COMPS:C13:1,2014-07-05T21:35:00Z,26.0630,-83.0730,72.09,1111122 
COMPS,ioos:station:USF.COMPS:C13:1,2014-07-05T22:05:00Z,26.0630,-83.0730,72.97,1111122 
COMPS,ioos:station:USF.COMPS:C13:1,2014-07-05T22:35:00Z,26.0630,-83.0730,72.91,1111122 
COMPS,ioos:station:USF.COMPS:C13:1,2014-07-05T23:05:00Z,26.0630,-83.0730,72.25,1111122 
COMPS,ioos:station:USF.COMPS:C13:1,2014-07-05T23:35:00Z,26.0630,-83.0730,72.33,1111122 
COMPS,ioos:station:USF.COMPS:C13:1,2014-07-06T00:05:00Z,26.0630,-83.0730,71.42,1111122 
COMPS,ioos:station:USF.COMPS:C13:1,2014-07-06T00:35:00Z,26.0630,-83.0730,73.47,1111122 
COMPS,ioos:station:USF.COMPS:C13:1,2014-07-06T01:05:00Z,26.0630,-83.0730,73.7,1111122 
COMPS,ioos:station:USF.COMPS:C13:1,2014-07-06T01:35:00Z,26.0630,-83.0730,74.12,1111122 
COMPS,ioos:station:USF.COMPS:C13:1,2014-07-06T02:05:00Z,26.0630,-83.0730,74.47,1111122 
COMPS,ioos:station:USF.COMPS:C13:1,2014-07-06T02:35:00Z,26.0630,-83.0730,74.92,1111122 
COMPS,ioos:station:USF.COMPS:C13:1,2014-07-06T03:05:00Z,26.0630,-83.0730,75.57,1111122 
COMPS,ioos:station:USF.COMPS:C13:1,2014-07-06T03:35:00Z,26.0630,-83.0730,74.69,1111122 
COMPS,ioos:station:USF.COMPS:C13:1,2014-07-06T04:05:00Z,26.0630,-83.0730,75.74,1111122 
COMPS,ioos:station:USF.COMPS:C13:1,2014-07-06T04:35:00Z,26.0630,-83.0730,75.55,1111122 
COMPS,ioos:station:USF.COMPS:C13:1,2014-07-06T05:05:00Z,26.0630,-83.0730,74.89,1111122 
COMPS,ioos:station:USF.COMPS:C13:1,2014-07-06T05:35:00Z,26.0630,-83.0730,75.41,1111122 
COMPS,ioos:station:USF.COMPS:C13:1,2014-07-06T06:05:00Z,26.0630,-83.0730,76.05,1111122 
COMPS,ioos:station:USF.COMPS:C13:1,2014-07-06T06:35:00Z,26.0630,-83.0730,74.78,1111122 
COMPS,ioos:station:USF.COMPS:C13:1,2014-07-06T07:05:00Z,26.0630,-83.0730,75.12,1111122 
COMPS,ioos:station:USF.COMPS:C13:1,2014-07-06T07:35:00Z,26.0630,-83.0730,76.12,1111122 
COMPS,ioos:station:USF.COMPS:C13:1,2014-07-06T08:05:00Z,26.0630,-83.0730,77.09,1111122 
COMPS,ioos:station:USF.COMPS:C13:1,2014-07-06T08:35:00Z,26.0630,-83.0730,76.22,1111122 
COMPS,ioos:station:USF.COMPS:C13:1,2014-07-06T09:05:00Z,26.0630,-83.0730,75.87,1111122 
COMPS,ioos:station:USF.COMPS:C13:1,2014-07-06T09:35:00Z,26.0630,-83.0730,76.27,1111122 
COMPS,ioos:station:USF.COMPS:C13:1,2014-07-06T10:05:00Z,26.0630,-83.0730,75.32,1111122 
COMPS,ioos:station:USF.COMPS:C13:1,2014-07-06T10:35:00Z,26.0630,-83.0730,75.65,1111122 
COMPS,ioos:station:USF.COMPS:C13:1,2014-07-06T11:05:00Z,26.0630,-83.0730,76.04,1111122 
COMPS,ioos:station:USF.COMPS:C13:1,2014-07-06T11:35:00Z,26.0630,-83.0730,75.35,1111122 
COMPS,ioos:station:USF.COMPS:C13:1,2014-07-06T12:05:00Z,26.0630,-83.0730,73.63,1111122 
COMPS,ioos:station:USF.COMPS:C13:1,2014-07-06T12:35:00Z,26.0630,-83.0730,76.12,1111122 
COMPS,ioos:station:USF.COMPS:C13:1,2014-07-06T13:05:00Z,26.0630,-83.0730,77.05,1111122 
COMPS,ioos:station:USF.COMPS:C13:1,2014-07-06T13:35:00Z,26.0630,-83.0730,75.47,1111122 
COMPS,ioos:station:USF.COMPS:C13:1,2014-07-06T14:05:00Z,26.0630,-83.0730,80.97,1111122 
COMPS,ioos:station:USF.COMPS:C13:1,2014-07-06T14:35:00Z,26.0630,-83.0730,71.94,1111122 
COMPS,ioos:station:USF.COMPS:C13:1,2014-07-06T15:05:00Z,26.0630,-83.0730,79.22,1111122 
COMPS,ioos:station:USF.COMPS:C13:1,2014-07-06T15:35:00Z,26.0630,-83.0730,76.48,1111122 
COMPS,ioos:station:USF.COMPS:C13:1,2014-07-06T16:05:00Z,26.0630,-83.0730,77.13,1111122 
COMPS,ioos:station:USF.COMPS:C13:1,2014-07-06T16:35:00Z,26.0630,-83.0730,78.09,1111122 
COMPS,ioos:station:USF.COMPS:C13:1,2014-07-06T17:05:00Z,26.0630,-83.0730,79.3,1111122 
COMPS,ioos:station:USF.COMPS:C13:1,2014-07-06T17:35:00Z,26.0630,-83.0730,78.85,1111122 
COMPS,ioos:station:USF.COMPS:C13:1,2014-07-06T18:05:00Z,26.0630,-83.0730,79.21,1111122 
COMPS,ioos:station:USF.COMPS:C13:1,2014-07-06T18:35:00Z,26.0630,-83.0730,77.28,1111122 
COMPS,ioos:station:USF.COMPS:C13:1,2014-07-06T19:05:00Z,26.0630,-83.0730,74.48,1111122 
COMPS,ioos:station:USF.COMPS:C13:1,2014-07-06T19:35:00Z,26.0630,-83.0730,72.82,1111122 
COMPS,ioos:station:USF.COMPS:C13:1,2014-07-06T20:05:00Z,26.0630,-83.0730,72.28,1111122 
COMPS,ioos:station:USF.COMPS:C13:1,2014-07-06T20:35:00Z,26.0630,-83.0730,71.54,1111122 
COMPS,ioos:station:USF.COMPS:C13:1,2014-07-06T21:05:00Z,26.0630,-83.0730,70.33,1111122 
COMPS,ioos:station:USF.COMPS:C13:1,2014-07-06T21:35:00Z,26.0630,-83.0730,69.06,1111122 
COMPS,ioos:station:USF.COMPS:C13:1,2014-07-06T22:05:00Z,26.0630,-83.0730,69.88,1111122 
COMPS,ioos:station:USF.COMPS:C13:1,2014-07-06T22:35:00Z,26.0630,-83.0730,71.01,1111122 
COMPS,ioos:station:USF.COMPS:C13:1,2014-07-06T23:05:00Z,26.0630,-83.0730,70.19,1111122 
COMPS,ioos:station:USF.COMPS:C13:1,2014-07-06T23:35:00Z,26.0630,-83.0730,71.03,1111122 